User: anonymous   Login
Location: Pine Mountain Observatory
(43.7910°N, 120.9377°W)
Time: 23:08:13
(UTC-08:00)
Language:

Cosmos 1867 - Orbit

View from above orbital plane
View from above orbital plane
View from above satellite
View from above satellite

Ground track
Ground track

The orbit data is extracted from the following two-line orbital elements,

1 18187U 87060A   15031.84770564 -.00000027  00000-0  27600-4 0  2911
2 18187 065.0116 136.0760 0013834 276.4581 083.4928 14.31046535439889
Epoch (UTC): 31 January 2015 20:20:41
Eccentricity: 0.0013834
inclination: 65.0116°
perigee height: 778 km
apogee height: 798 km
right ascension of ascending node: 136.0760°
argument of perigee: 276.4581°
revolutions per day: 14.31046535
mean anomaly at epoch: 83.4928°
orbit number at epoch: 43988

The dashed part of the orbit path shows where the satellite is in the earth's shadow,  

DLR